Location: ??????
(56.0120°N, 39.1740°E)
Time: 11:56:26
(UTC+00:00)

NOSS 3-1 (C) - Pass Details

Date: 14 April 2026
Orbit: 618 x 1583 km, 63.4° (Epoch: 10 January)

Event Time Altitude Azimuth Distance (km) Brightness Sun altitude
Rises 18:10:56 0° 301° (WNW) 3,441 8.2 -13.3°
Reaches altitude 10° 18:13:13 10° 305° (NW) 2,621 7.2 -13.5°
Maximum altitude 18:19:23 63° 27° (NNE) 1,209 4.0 -14.1°
Enters shadow 18:26:02 15° 106° (ESE) 2,897 5.4 -14.8°
